Dewpoint
41 41 42 43 43 43 44 43 45 45 44 42 40 39 37 36 36 38 39 39 39 39 40 40 40 39 39
38 38 38 41 39 39 39 38 39 43 41 41 39 37 36 36 36 38 38 37 37 37 37 38 38 38 39
37 35 35 35 34 33 33 32 33 35 38 37 35 35 34 34 35 37 38 37 36 35 36 35 35 36 37
34 33 33 32 34 31 29 29 28 24 27 29 30 32 34 33 34 35 35 34 34 34 33 33 34 35 36
34 33 31 31 32 31 30 30 29 27 25 26 27 28 27 28 29 30 32 32 32 32 31 33 33 34 34
34 34 32 32 32 31 29 29 30 27 23 22 23 22 23 23 24 28 30 29 29 30 32 32 32 32 33
36 35 33 33 32 31 30 29 22 25 23 19 22 19 21 19 26 28 29 29 30 31 31 32 32 31 32
35 34 32 33 33 30 26 23 22 23 23 18 21 18 20 20 24 27 28 29 30 31 31 31 31 31 32
35 33 33 31 28 24 23 23 18 18 21 18 20 19 20 19 20 24 29 29 29 29 31 31 31 31 30
29 29 29 28 26 23 22 24 22 22 22 21 20 20 21 19 21 21 20 24 26 27 28 28 28 26 25
22 21 21 22 22 23 23 24 25 23 22 24 26 24 24 22 20 21 21 21 21 22 25 26 26 26 24
18 18 21 23 24 26 25 25 24 24 26 24 26 25 24 23 21 20 21 22 22 22 22 23 25 25 26
19 22 24 25 26 26 26 26 26 26 24 26 27 26 25 24 23 22 22 21 21 22 22 21 20 19 19
22 23 25 27 26 27 26 26 26 25 25 27 27 26 25 24 24 23 22 22 21 21 21 20 19 19 20
25 25 24 25 25 26 26 26 25 24 24 25 26 25 25 25 22 22 22 22 21 21 20 19 19 18 18
26 26 26 26 26 26 26 25 25 24 24 24 24 23 23 23 25 23 23 22 21 21 20 20 20 19 18
26 26 25 25 26 26 25 25 24 24 24 24 23 22 21 19 21 25 23 23 22 21 20 20 20 20 19
Lifted_Index
2 2 2 3 3 4 4 5 5 5 6 7 8 9 11 12 13 13 14 14 15 15 15 15 15 15 15
2 2 2 3 3 3 4 5 5 6 6 7 8 10 11 12 13 13 14 15 15 16 16 16 16 16 16
2 2 3 3 3 3 4 5 5 6 7 8 9 10 11 12 13 14 15 15 16 16 16 17 17 16 16
2 2 2 2 3 3 3 4 5 7 8 9 10 11 12 13 15 15 16 16 17 17 17 17 17 17 17
2 2 2 2 2 3 3 4 6 7 8 10 11 12 14 15 16 17 17 17 17 17 17 17 17 17 17
2 2 2 3 3 4 4 5 6 8 10 11 12 14 15 16 17 17 17 18 18 18 17 17 17 17 17
3 4 4 5 5 6 6 7 8 10 12 13 13 14 15 16 16 17 17 17 18 17 17 17 17 17 17
5 6 6 7 7 8 9 9 10 12 13 13 13 13 14 15 15 16 17 17 17 17 17 17 17 17 17
8 8 9 9 10 11 11 11 11 12 12 12 12 13 13 14 14 15 16 16 17 17 17 17 17 17 17
10 11 11 12 12 13 12 11 10 11 12 12 13 13 13 13 14 15 15 16 16 17 17 17 17 17 17
11 11 12 12 13 13 13 12 11 12 13 13 13 13 13 13 13 14 15 15 16 16 16 17 17 17 17
11 11 11 12 12 13 13 13 13 13 14 14 14 13 13 13 13 14 14 15 15 16 16 17 17 17 18
11 11 11 12 13 13 13 14 14 14 14 15 14 14 14 14 14 14 14 14 15 15 16 17 17 17 17
12 12 13 13 13 13 14 14 14 15 15 16 16 15 15 15 14 14 14 14 14 15 16 17 17 17 17
13 13 14 14 14 14 14 14 15 15 15 16 16 16 16 15 15 14 14 14 15 16 16 17 17 17 17
14 14 14 14 14 14 15 15 14 15 15 15 16 16 15 15 14 14 14 14 15 16 16 16 16 15 15
14 14 14 14 14 15 15 15 14 14 15 15 15 15 14 14 14 15 14 14 15 15 16 15 15 14 14